Location: Culleoka
(33.1312°N, 96.4919°W)
Time: 23:15:55
(UTC+00:00)

Lacrosse 5 rocket - Pass Details

Date: 06 July 2022
Orbit: 456 x 628 km, 57.0° (Epoch: 09 August)

Event Time Altitude Azimuth Distance (km) Brightness Sun altitude
Rises 02:39:00 0° 320° (NW) 2,592 6.5 -11.5°
Reaches altitude 10° 02:41:07 10° 320° (NW) 1,733 5.3 -11.8°
Maximum altitude 02:45:02 85° 234° (SW) 539 1.2 -12.5°
Enters shadow 02:47:52 19° 145° (SE) 1,317 2.7 -13.0°
